Year,Month,Day,Hour,Minute,Value (Times are PST for windspeed in km/hr)
2022,05,18,00,00,4.30
2022,05,18,00,01,6.10
2022,05,18,00,02,5.60
2022,05,18,00,03,3.20
2022,05,18,00,04,4.80
2022,05,18,00,05,3.20
2022,05,18,00,06,2.90
2022,05,18,00,07,5.70
2022,05,18,00,08,5.80
2022,05,18,00,09,7.60
2022,05,18,00,10,6.80
2022,05,18,00,11,5.60
2022,05,18,00,12,7.40
2022,05,18,00,13,3.30
2022,05,18,00,14,4.10
2022,05,18,00,15,6.00
2022,05,18,00,16,5.40
2022,05,18,00,17,7.50
2022,05,18,00,18,7.70
2022,05,18,00,19,6.70
2022,05,18,00,20,7.60
2022,05,18,00,21,7.90
2022,05,18,00,22,2.70
2022,05,18,00,23,7.30
2022,05,18,00,24,4.70
2022,05,18,00,25,2.70
2022,05,18,00,26,3.20
2022,05,18,00,27,1.00
2022,05,18,00,28,2.40
2022,05,18,00,29,4.80
2022,05,18,00,30,6.10
2022,05,18,00,31,5.50
2022,05,18,00,32,2.30
2022,05,18,00,33,6.20
2022,05,18,00,34,5.00
2022,05,18,00,35,2.60
2022,05,18,00,36,6.20
2022,05,18,00,37,4.50
2022,05,18,00,38,4.30
2022,05,18,00,39,8.00
2022,05,18,00,40,4.60
2022,05,18,00,41,4.10
2022,05,18,00,42,2.60
2022,05,18,00,43,2.50
2022,05,18,00,44,2.40
2022,05,18,00,45,1.50
2022,05,18,00,46,4.40
2022,05,18,00,47,1.30
2022,05,18,00,48,0.80
2022,05,18,00,49,1.20
2022,05,18,00,50,2.90
2022,05,18,00,51,2.40
2022,05,18,00,52,3.80
2022,05,18,00,53,3.00
2022,05,18,00,54,7.40
2022,05,18,00,55,8.40
2022,05,18,00,56,3.80
2022,05,18,00,57,4.70
2022,05,18,00,58,4.20
2022,05,18,00,59,3.00
2022,05,18,01,00,0.40
2022,05,18,01,01,3.40
2022,05,18,01,02,5.10
2022,05,18,01,03,4.70
2022,05,18,01,04,3.70
2022,05,18,01,05,2.90
2022,05,18,01,06,0.80
2022,05,18,01,07,3.60
2022,05,18,01,08,2.30
2022,05,18,01,09,3.90
2022,05,18,01,10,5.70
2022,05,18,01,11,6.40
2022,05,18,01,12,5.80
2022,05,18,01,13,5.10
2022,05,18,01,14,5.40
2022,05,18,01,15,1.90
2022,05,18,01,16,4.30
2022,05,18,01,17,1.20
2022,05,18,01,18,2.50
2022,05,18,01,19,2.30
2022,05,18,01,20,3.10
2022,05,18,01,21,1.70
2022,05,18,01,22,5.40
2022,05,18,01,23,5.00
2022,05,18,01,24,7.30
2022,05,18,01,25,2.50
2022,05,18,01,26,4.50
2022,05,18,01,27,7.00
2022,05,18,01,28,5.00
2022,05,18,01,29,4.20
2022,05,18,01,30,4.30
2022,05,18,01,31,4.90
2022,05,18,01,32,2.20
2022,05,18,01,33,1.20
2022,05,18,01,34,2.30
2022,05,18,01,35,1.80
2022,05,18,01,36,2.90
2022,05,18,01,37,6.40
2022,05,18,01,38,4.40
2022,05,18,01,39,4.80
2022,05,18,01,40,6.80
2022,05,18,01,41,4.80
2022,05,18,01,42,7.40
2022,05,18,01,43,3.00
2022,05,18,01,44,3.30
2022,05,18,01,45,4.10
2022,05,18,01,46,4.00
2022,05,18,01,47,5.50
2022,05,18,01,48,4.80
2022,05,18,01,49,4.60
2022,05,18,01,50,3.40
2022,05,18,01,51,3.00
2022,05,18,01,52,5.00
2022,05,18,01,53,5.00
2022,05,18,01,54,4.60
2022,05,18,01,55,4.50
2022,05,18,01,56,4.30
2022,05,18,01,57,8.20
2022,05,18,01,58,5.40
2022,05,18,01,59,3.10
2022,05,18,02,00,4.70
2022,05,18,02,01,5.50
2022,05,18,02,02,6.20
2022,05,18,02,03,6.80
2022,05,18,02,04,7.00
2022,05,18,02,05,3.30
2022,05,18,02,06,2.40
2022,05,18,02,07,0.30
2022,05,18,02,08,1.90
2022,05,18,02,09,2.10
2022,05,18,02,10,1.60
2022,05,18,02,11,0.60
2022,05,18,02,12,0.60
2022,05,18,02,13,2.50
2022,05,18,02,14,2.40
2022,05,18,02,15,3.90
2022,05,18,02,16,3.50
2022,05,18,02,17,2.30
2022,05,18,02,18,1.10
2022,05,18,02,19,1.00
2022,05,18,02,20,3.50
2022,05,18,02,21,3.30
2022,05,18,02,22,0.50
2022,05,18,02,23,3.70
2022,05,18,02,24,1.50
2022,05,18,02,25,1.60
2022,05,18,02,26,3.20
2022,05,18,02,27,1.10
2022,05,18,02,28,1.90
2022,05,18,02,29,1.80
2022,05,18,02,30,0.00
2022,05,18,02,31,1.80
2022,05,18,02,32,0.80
2022,05,18,02,33,1.20
2022,05,18,02,34,2.10
2022,05,18,02,35,1.70
2022,05,18,02,36,2.70
2022,05,18,02,37,1.20
2022,05,18,02,38,1.30
2022,05,18,02,39,4.50
2022,05,18,02,40,3.70
2022,05,18,02,41,3.40
2022,05,18,02,42,0.80
2022,05,18,02,43,1.40
2022,05,18,02,44,4.20
2022,05,18,02,45,2.40
2022,05,18,02,46,2.30
2022,05,18,02,47,3.60
2022,05,18,02,48,0.80
2022,05,18,02,49,0.80
2022,05,18,02,50,2.70
2022,05,18,02,51,1.00
2022,05,18,02,52,1.50
2022,05,18,02,53,1.90
2022,05,18,02,54,3.30
2022,05,18,02,55,1.60
2022,05,18,02,56,0.10
2022,05,18,02,57,0.20
2022,05,18,02,58,1.00
2022,05,18,02,59,0.00
2022,05,18,03,00,0.00
2022,05,18,03,01,1.20
2022,05,18,03,02,1.40
2022,05,18,03,03,0.30
2022,05,18,03,04,0.10
2022,05,18,03,05,0.10
2022,05,18,03,06,1.20
2022,05,18,03,07,0.40
2022,05,18,03,08,0.10
2022,05,18,03,09,0.40
2022,05,18,03,10,2.30
2022,05,18,03,11,1.70
2022,05,18,03,12,1.50
2022,05,18,03,13,2.30
2022,05,18,03,14,0.70
2022,05,18,03,15,1.40
2022,05,18,03,16,1.70
2022,05,18,03,17,3.00
2022,05,18,03,18,2.50
2022,05,18,03,19,2.10
2022,05,18,03,20,2.30
2022,05,18,03,21,1.20
2022,05,18,03,22,1.90
2022,05,18,03,23,3.70
2022,05,18,03,24,3.10
2022,05,18,03,25,0.90
2022,05,18,03,26,1.50
2022,05,18,03,27,3.50
2022,05,18,03,28,3.10
2022,05,18,03,29,2.90
2022,05,18,03,30,4.90
2022,05,18,03,31,3.50
2022,05,18,03,32,3.90
2022,05,18,03,33,2.40
2022,05,18,03,34,3.10
2022,05,18,03,35,3.10
2022,05,18,03,36,1.90
2022,05,18,03,37,2.80
2022,05,18,03,38,4.40
2022,05,18,03,39,4.80
2022,05,18,03,40,5.60
2022,05,18,03,41,3.80
2022,05,18,03,42,3.60
2022,05,18,03,43,2.80
2022,05,18,03,44,3.70
2022,05,18,03,45,5.40
2022,05,18,03,46,3.90
2022,05,18,03,47,4.80
2022,05,18,03,48,6.40
2022,05,18,03,49,7.30
2022,05,18,03,50,8.10
2022,05,18,03,51,6.70
2022,05,18,03,52,4.30
2022,05,18,03,53,2.90
2022,05,18,03,54,6.90
2022,05,18,03,55,8.50
2022,05,18,03,56,5.90
2022,05,18,03,57,4.20
2022,05,18,03,58,7.20
2022,05,18,03,59,6.20
2022,05,18,04,00,4.50
2022,05,18,04,01,2.70
2022,05,18,04,02,3.10
2022,05,18,04,03,4.40
2022,05,18,04,04,2.40
2022,05,18,04,05,4.30
2022,05,18,04,06,4.10
2022,05,18,04,07,1.20
2022,05,18,04,08,4.20
2022,05,18,04,09,5.00
2022,05,18,04,10,5.50
2022,05,18,04,11,5.00
2022,05,18,04,12,3.30
2022,05,18,04,13,4.60
2022,05,18,04,14,4.10
2022,05,18,04,15,4.60
2022,05,18,04,16,7.00
2022,05,18,04,17,3.20
2022,05,18,04,18,4.40
2022,05,18,04,19,3.40
2022,05,18,04,20,3.40
2022,05,18,04,21,3.10
2022,05,18,04,22,3.30
2022,05,18,04,23,3.20
2022,05,18,04,24,5.20
2022,05,18,04,25,3.80
2022,05,18,04,26,6.90
2022,05,18,04,27,4.30
2022,05,18,04,28,4.40
2022,05,18,04,29,6.70
2022,05,18,04,30,2.70
2022,05,18,04,31,3.20
2022,05,18,04,32,2.90
2022,05,18,04,33,3.70
2022,05,18,04,34,3.50
2022,05,18,04,35,5.10
2022,05,18,04,36,4.60
2022,05,18,04,37,3.30
2022,05,18,04,38,2.00
2022,05,18,04,39,3.30
2022,05,18,04,40,1.30
2022,05,18,04,41,2.90
2022,05,18,04,42,4.50
2022,05,18,04,43,5.60
2022,05,18,04,44,5.80
2022,05,18,04,45,2.00
2022,05,18,04,46,5.50
2022,05,18,04,47,4.60
2022,05,18,04,48,6.80
2022,05,18,04,49,4.60
2022,05,18,04,50,5.20
2022,05,18,04,51,2.10
2022,05,18,04,52,4.10
2022,05,18,04,53,3.40
2022,05,18,04,54,3.50
2022,05,18,04,55,4.20
2022,05,18,04,56,5.60
2022,05,18,04,57,7.30
2022,05,18,04,58,4.30
2022,05,18,04,59,4.70
2022,05,18,05,00,6.40
2022,05,18,05,01,2.30
2022,05,18,05,02,5.00
2022,05,18,05,03,5.10
2022,05,18,05,04,7.80
2022,05,18,05,05,7.50
2022,05,18,05,06,5.40
2022,05,18,05,07,3.90
2022,05,18,05,08,6.40
2022,05,18,05,09,4.10
2022,05,18,05,10,7.60
2022,05,18,05,11,5.30
2022,05,18,05,12,4.60
2022,05,18,05,13,6.40
2022,05,18,05,14,9.30
2022,05,18,05,15,6.40
2022,05,18,05,16,5.70
2022,05,18,05,17,3.50
2022,05,18,05,18,6.30
2022,05,18,05,19,7.20
2022,05,18,05,20,7.50
2022,05,18,05,21,3.90
2022,05,18,05,22,7.10
2022,05,18,05,23,6.30
2022,05,18,05,24,7.20
2022,05,18,05,25,4.60
2022,05,18,05,26,4.40
2022,05,18,05,27,4.40
2022,05,18,05,28,5.30
2022,05,18,05,29,4.70
2022,05,18,05,30,5.80
2022,05,18,05,31,5.30
2022,05,18,05,32,6.70
2022,05,18,05,33,5.20
2022,05,18,05,34,3.50
2022,05,18,05,35,4.20
2022,05,18,05,36,5.90
2022,05,18,05,37,8.80
2022,05,18,05,38,6.20
2022,05,18,05,39,6.00
2022,05,18,05,40,4.80
2022,05,18,05,41,6.30
2022,05,18,05,42,4.70
2022,05,18,05,43,5.90
2022,05,18,05,44,6.00
2022,05,18,05,45,6.20
2022,05,18,05,46,7.60
2022,05,18,05,47,3.00
2022,05,18,05,48,6.40
2022,05,18,05,49,4.50
2022,05,18,05,50,7.60
2022,05,18,05,51,11.70
2022,05,18,05,52,9.70
2022,05,18,05,53,9.40
2022,05,18,05,54,8.70
2022,05,18,05,55,8.50
2022,05,18,05,56,7.40
2022,05,18,05,57,6.70
2022,05,18,05,58,8.40
2022,05,18,05,59,9.10
2022,05,18,06,00,11.50
2022,05,18,06,01,10.30
2022,05,18,06,02,11.40
2022,05,18,06,03,15.60
2022,05,18,06,04,10.50
2022,05,18,06,05,6.90
2022,05,18,06,06,11.00
2022,05,18,06,07,7.30
2022,05,18,06,08,7.30
2022,05,18,06,09,15.30
2022,05,18,06,10,10.10
2022,05,18,06,11,10.10
2022,05,18,06,12,15.30
2022,05,18,06,13,16.90
2022,05,18,06,14,15.10
2022,05,18,06,15,15.40
2022,05,18,06,16,20.00
2022,05,18,06,17,14.60
2022,05,18,06,18,16.90
2022,05,18,06,19,11.70
2022,05,18,06,20,15.40
2022,05,18,06,21,12.90
2022,05,18,06,22,15.40
2022,05,18,06,23,16.70
2022,05,18,06,24,15.70
2022,05,18,06,25,12.10
2022,05,18,06,26,16.60
2022,05,18,06,27,13.80
2022,05,18,06,28,21.20
2022,05,18,06,29,14.90
2022,05,18,06,30,11.00
2022,05,18,06,31,18.70
2022,05,18,06,32,24.50
2022,05,18,06,33,19.70
2022,05,18,06,34,14.90
2022,05,18,06,35,21.20
2022,05,18,06,36,33.50
2022,05,18,06,37,25.10
2022,05,18,06,38,23.60
2022,05,18,06,39,18.80
2022,05,18,06,40,11.90
2022,05,18,06,41,13.10
2022,05,18,06,42,17.20
2022,05,18,06,43,18.00
2022,05,18,06,44,15.80
2022,05,18,06,45,15.70
2022,05,18,06,46,20.70
2022,05,18,06,47,17.10
2022,05,18,06,48,15.00
2022,05,18,06,49,15.20
2022,05,18,06,50,16.80
2022,05,18,06,51,18.70
2022,05,18,06,52,19.60
2022,05,18,06,53,19.00
2022,05,18,06,54,14.00
2022,05,18,06,55,14.70
2022,05,18,06,56,21.90
2022,05,18,06,57,21.10
2022,05,18,06,58,14.70
2022,05,18,06,59,21.90
2022,05,18,07,00,24.90
2022,05,18,07,01,15.40
2022,05,18,07,02,17.00
2022,05,18,07,03,12.60
2022,05,18,07,04,12.10
2022,05,18,07,05,10.60
2022,05,18,07,06,13.00
2022,05,18,07,07,15.20
2022,05,18,07,08,16.90
2022,05,18,07,09,18.50
2022,05,18,07,10,24.60
2022,05,18,07,11,21.90
2022,05,18,07,12,18.80
2022,05,18,07,13,20.20
2022,05,18,07,14,13.00
2022,05,18,07,15,16.40
2022,05,18,07,16,18.90
2022,05,18,07,17,12.70
2022,05,18,07,18,17.30
2022,05,18,07,19,14.80
2022,05,18,07,20,13.30
2022,05,18,07,21,17.00
2022,05,18,07,22,15.40
2022,05,18,07,23,17.90
2022,05,18,07,24,23.20
2022,05,18,07,25,21.50
2022,05,18,07,26,15.40
2022,05,18,07,27,11.90
2022,05,18,07,28,10.70
2022,05,18,07,29,18.10
2022,05,18,07,30,22.00
2022,05,18,07,31,16.30
2022,05,18,07,32,14.10
2022,05,18,07,33,20.00
2022,05,18,07,34,18.90
2022,05,18,07,35,13.70
2022,05,18,07,36,11.00
2022,05,18,07,37,9.70
2022,05,18,07,38,16.30
2022,05,18,07,39,9.00
2022,05,18,07,40,13.10
2022,05,18,07,41,11.40
2022,05,18,07,42,14.30
2022,05,18,07,43,18.50
2022,05,18,07,44,16.80
2022,05,18,07,45,13.60
2022,05,18,07,46,17.00
2022,05,18,07,47,13.90
2022,05,18,07,48,23.90
2022,05,18,07,49,15.10
2022,05,18,07,50,15.40
2022,05,18,07,51,17.10
2022,05,18,07,52,22.60
2022,05,18,07,53,13.30
2022,05,18,07,54,16.70
2022,05,18,07,55,19.70
2022,05,18,07,56,25.50
2022,05,18,07,57,13.30
2022,05,18,07,58,15.10
2022,05,18,07,59,18.30
2022,05,18,08,00,17.80
2022,05,18,08,01,17.40
2022,05,18,08,02,16.80
2022,05,18,08,03,14.50
2022,05,18,08,04,17.80
2022,05,18,08,05,14.60
2022,05,18,08,06,17.60
2022,05,18,08,07,17.60
2022,05,18,08,08,8.90
2022,05,18,08,09,20.40
2022,05,18,08,10,14.00
2022,05,18,08,11,14.10
2022,05,18,08,12,14.80
2022,05,18,08,13,14.70
2022,05,18,08,14,18.20
2022,05,18,08,15,15.80
2022,05,18,08,16,22.10
2022,05,18,08,17,22.30
2022,05,18,08,18,13.60
2022,05,18,08,19,13.30
2022,05,18,08,20,24.10
2022,05,18,08,21,17.80
2022,05,18,08,22,14.60
2022,05,18,08,23,17.90
2022,05,18,08,24,17.70
2022,05,18,08,25,20.30
2022,05,18,08,26,18.70
2022,05,18,08,27,21.50
2022,05,18,08,28,11.30
2022,05,18,08,29,10.10
2022,05,18,08,30,13.00
2022,05,18,08,31,18.30
2022,05,18,08,32,14.70
2022,05,18,08,33,12.30
2022,05,18,08,34,10.70
2022,05,18,08,35,12.80
2022,05,18,08,36,13.60
2022,05,18,08,37,14.00
2022,05,18,08,38,14.10
2022,05,18,08,39,15.00
2022,05,18,08,40,10.20
2022,05,18,08,41,7.40
2022,05,18,08,42,12.90
2022,05,18,08,43,12.90
2022,05,18,08,44,13.20
2022,05,18,08,45,13.10
2022,05,18,08,46,10.00
2022,05,18,08,47,11.30
2022,05,18,08,48,19.50
2022,05,18,08,49,16.00
2022,05,18,08,50,13.80
2022,05,18,08,51,5.10
2022,05,18,08,52,6.40
2022,05,18,08,53,12.00
2022,05,18,08,54,13.60
2022,05,18,08,55,12.10
2022,05,18,08,56,9.70
2022,05,18,08,57,8.00
2022,05,18,08,58,11.70
2022,05,18,08,59,11.80
2022,05,18,09,00,16.40
2022,05,18,09,01,16.30
2022,05,18,09,02,9.90
2022,05,18,09,03,4.70
2022,05,18,09,04,9.90
2022,05,18,09,05,10.30
2022,05,18,09,06,9.30
2022,05,18,09,07,12.30
2022,05,18,09,08,19.10
2022,05,18,09,09,10.40
2022,05,18,09,10,9.90
2022,05,18,09,11,15.50
2022,05,18,09,12,17.40
2022,05,18,09,13,20.40
2022,05,18,09,14,13.20
2022,05,18,09,15,9.70
2022,05,18,09,16,16.10
2022,05,18,09,17,11.00
2022,05,18,09,18,15.80
2022,05,18,09,19,13.70
2022,05,18,09,20,17.70
2022,05,18,09,21,11.10
2022,05,18,09,22,13.40
2022,05,18,09,23,18.60
2022,05,18,09,24,13.80
2022,05,18,09,25,16.60
2022,05,18,09,26,16.90
2022,05,18,09,27,9.90
2022,05,18,09,28,17.00
2022,05,18,09,29,20.00
2022,05,18,09,30,20.30
2022,05,18,09,31,14.50
2022,05,18,09,32,14.60
2022,05,18,09,33,14.90
2022,05,18,09,34,10.30
2022,05,18,09,35,9.80
2022,05,18,09,36,15.80
2022,05,18,09,37,20.90
2022,05,18,09,38,16.70
2022,05,18,09,39,24.50
2022,05,18,09,40,13.80
2022,05,18,09,41,16.30
2022,05,18,09,42,9.90
2022,05,18,09,43,10.30
2022,05,18,09,44,11.90
2022,05,18,09,45,18.10
2022,05,18,09,46,14.80
2022,05,18,09,47,13.20
2022,05,18,09,48,14.90
2022,05,18,09,49,17.50
2022,05,18,09,50,18.00
2022,05,18,09,51,16.00
2022,05,18,09,52,13.20
2022,05,18,09,53,15.00
2022,05,18,09,54,8.10
2022,05,18,09,55,11.50
2022,05,18,09,56,15.50
2022,05,18,09,57,10.20
2022,05,18,09,58,14.00
2022,05,18,09,59,15.90
2022,05,18,10,00,19.40
2022,05,18,10,01,21.40
2022,05,18,10,02,19.40
2022,05,18,10,03,19.00
2022,05,18,10,04,16.60
2022,05,18,10,05,11.80
2022,05,18,10,06,13.40
2022,05,18,10,07,14.40
2022,05,18,10,08,11.10
2022,05,18,10,09,10.50
2022,05,18,10,10,13.50
2022,05,18,10,11,12.30
2022,05,18,10,12,16.90
2022,05,18,10,13,14.60
2022,05,18,10,14,21.20
2022,05,18,10,15,19.60
2022,05,18,10,16,12.20
2022,05,18,10,17,17.80
2022,05,18,10,18,18.90
2022,05,18,10,19,17.40
2022,05,18,10,20,21.70
2022,05,18,10,21,13.70
2022,05,18,10,22,12.50
2022,05,18,10,23,17.20
2022,05,18,10,24,17.60
2022,05,18,10,25,18.50
2022,05,18,10,26,15.20
2022,05,18,10,27,18.00
2022,05,18,10,28,18.70
2022,05,18,10,29,19.80
2022,05,18,10,30,13.90
2022,05,18,10,31,11.90
2022,05,18,10,32,10.40
2022,05,18,10,33,11.60
2022,05,18,10,34,16.20
2022,05,18,10,35,10.70
2022,05,18,10,36,21.00
2022,05,18,10,37,19.00
2022,05,18,10,38,17.30
2022,05,18,10,39,19.50
2022,05,18,10,40,23.50
2022,05,18,10,41,18.80
2022,05,18,10,42,18.20
2022,05,18,10,43,20.40
2022,05,18,10,44,19.40
2022,05,18,10,45,18.60
2022,05,18,10,46,21.50
2022,05,18,10,47,23.00
2022,05,18,10,48,22.90
2022,05,18,10,49,22.50
2022,05,18,10,50,22.40
2022,05,18,10,51,19.40
2022,05,18,10,52,18.50
2022,05,18,10,53,18.60
2022,05,18,10,54,27.40
2022,05,18,10,55,26.70
2022,05,18,10,56,19.50
2022,05,18,10,57,15.50
2022,05,18,10,58,22.00
2022,05,18,10,59,18.10
2022,05,18,11,00,19.60
2022,05,18,11,01,20.20
2022,05,18,11,02,11.80
2022,05,18,11,03,13.80
2022,05,18,11,04,17.10
2022,05,18,11,05,17.30
2022,05,18,11,06,20.40
2022,05,18,11,07,14.30
2022,05,18,11,08,28.80
2022,05,18,11,09,15.10
2022,05,18,11,10,18.80
2022,05,18,11,11,22.90
2022,05,18,11,12,20.70
2022,05,18,11,13,16.40
2022,05,18,11,14,14.60
2022,05,18,11,15,17.60
2022,05,18,11,16,22.30
2022,05,18,11,17,26.80
2022,05,18,11,18,19.30
2022,05,18,11,19,14.40
2022,05,18,11,20,14.60
2022,05,18,11,21,16.40
2022,05,18,11,22,16.00
2022,05,18,11,23,12.10
2022,05,18,11,24,13.10
2022,05,18,11,25,14.60
2022,05,18,11,26,19.30
2022,05,18,11,27,21.50
2022,05,18,11,28,12.90
2022,05,18,11,29,14.00
2022,05,18,11,30,11.50
2022,05,18,11,31,15.80
2022,05,18,11,32,17.80
2022,05,18,11,33,27.70
2022,05,18,11,34,14.90
2022,05,18,11,35,17.60
2022,05,18,11,36,13.30
2022,05,18,11,37,17.40
2022,05,18,11,38,20.10
2022,05,18,11,39,16.20
2022,05,18,11,40,9.80
2022,05,18,11,41,11.00
2022,05,18,11,42,9.30
2022,05,18,11,43,14.70
2022,05,18,11,44,18.50
2022,05,18,11,45,16.00
2022,05,18,11,46,14.60
2022,05,18,11,47,11.50
2022,05,18,11,48,10.90
2022,05,18,11,49,13.50
2022,05,18,11,50,15.00
2022,05,18,11,51,17.80
2022,05,18,11,52,14.70
2022,05,18,11,53,16.00
2022,05,18,11,54,17.80
2022,05,18,11,55,13.10
2022,05,18,11,56,15.80
2022,05,18,11,57,19.60
2022,05,18,11,58,21.30
2022,05,18,11,59,11.20
2022,05,18,12,00,16.40
2022,05,18,12,01,12.90
2022,05,18,12,02,14.50
2022,05,18,12,03,16.20
2022,05,18,12,04,11.00
2022,05,18,12,05,10.40
2022,05,18,12,06,13.60
2022,05,18,12,07,15.50
2022,05,18,12,08,20.90
2022,05,18,12,09,13.60
2022,05,18,12,10,14.70
2022,05,18,12,11,15.80
2022,05,18,12,12,23.10
2022,05,18,12,13,22.60
2022,05,18,12,14,20.40
2022,05,18,12,15,19.10
2022,05,18,12,16,16.50
2022,05,18,12,17,11.40
2022,05,18,12,18,23.80
2022,05,18,12,19,16.50
2022,05,18,12,20,15.70
2022,05,18,12,21,13.60
2022,05,18,12,22,16.00
2022,05,18,12,23,17.20
2022,05,18,12,24,16.30
2022,05,18,12,25,15.70
2022,05,18,12,26,5.50
2022,05,18,12,27,13.40
2022,05,18,12,28,12.60
2022,05,18,12,29,12.60
2022,05,18,12,30,14.30
2022,05,18,12,31,11.90
2022,05,18,12,32,12.20
2022,05,18,12,33,17.00
2022,05,18,12,34,13.10
2022,05,18,12,35,13.10
2022,05,18,12,36,18.30
2022,05,18,12,37,19.00
2022,05,18,12,38,18.40
2022,05,18,12,39,13.90
2022,05,18,12,40,14.10
2022,05,18,12,41,13.80
2022,05,18,12,42,14.70
2022,05,18,12,43,8.90
2022,05,18,12,44,11.80
2022,05,18,12,45,10.10
2022,05,18,12,46,10.60
2022,05,18,12,47,16.50
2022,05,18,12,48,12.40
2022,05,18,12,49,17.60
2022,05,18,12,50,13.10
2022,05,18,12,51,18.00
2022,05,18,12,52,17.40
2022,05,18,12,53,11.10
2022,05,18,12,54,19.80
2022,05,18,12,55,15.20
2022,05,18,12,56,13.00
2022,05,18,12,57,17.80
2022,05,18,12,58,21.20
2022,05,18,12,59,17.00
2022,05,18,13,00,9.70
2022,05,18,13,01,17.00
2022,05,18,13,02,18.00
2022,05,18,13,03,15.70
2022,05,18,13,04,10.50
2022,05,18,13,05,21.20
2022,05,18,13,06,18.10
2022,05,18,13,07,19.70
2022,05,18,13,08,20.10
2022,05,18,13,09,11.40
2022,05,18,13,10,18.20
2022,05,18,13,11,19.70
2022,05,18,13,12,23.20
2022,05,18,13,13,11.90
2022,05,18,13,14,16.90
2022,05,18,13,15,21.50
2022,05,18,13,16,15.50
2022,05,18,13,17,16.50
2022,05,18,13,18,20.20
2022,05,18,13,19,8.70
2022,05,18,13,20,17.40
2022,05,18,13,21,13.80
2022,05,18,13,22,19.00
2022,05,18,13,23,13.80
2022,05,18,13,24,19.90
2022,05,18,13,25,19.20
2022,05,18,13,26,13.80
2022,05,18,13,27,15.00
2022,05,18,13,28,11.60
2022,05,18,13,29,16.00
2022,05,18,13,30,15.00
2022,05,18,13,31,13.10
2022,05,18,13,32,16.20
2022,05,18,13,33,13.90
2022,05,18,13,34,19.50
2022,05,18,13,35,15.20
2022,05,18,13,36,17.40
2022,05,18,13,37,20.60
2022,05,18,13,38,16.40
2022,05,18,13,39,14.50
2022,05,18,13,40,7.50
2022,05,18,13,41,17.70
2022,05,18,13,42,13.80
2022,05,18,13,43,11.10
2022,05,18,13,44,20.30
2022,05,18,13,45,15.10
2022,05,18,13,46,18.30
2022,05,18,13,47,8.20
2022,05,18,13,48,15.10
2022,05,18,13,49,12.40
2022,05,18,13,50,15.10
2022,05,18,13,51,16.30
2022,05,18,13,52,9.90
2022,05,18,13,53,13.30
2022,05,18,13,54,11.30
2022,05,18,13,55,14.10
2022,05,18,13,56,10.70
2022,05,18,13,57,17.10
2022,05,18,13,58,19.60
2022,05,18,13,59,14.50
2022,05,18,14,00,8.20
2022,05,18,14,01,8.00
2022,05,18,14,02,9.10
2022,05,18,14,03,11.40
2022,05,18,14,04,10.40
2022,05,18,14,05,14.50
2022,05,18,14,06,15.50
2022,05,18,14,07,9.40
2022,05,18,14,08,8.90
2022,05,18,14,09,16.00
2022,05,18,14,10,13.60
2022,05,18,14,11,21.00
2022,05,18,14,12,16.90
2022,05,18,14,13,14.70
2022,05,18,14,14,7.50
2022,05,18,14,15,16.60
2022,05,18,14,16,17.40
2022,05,18,14,17,12.30
2022,05,18,14,18,10.90
2022,05,18,14,19,9.90
2022,05,18,14,20,9.00
2022,05,18,14,21,11.90
2022,05,18,14,22,20.20
2022,05,18,14,23,22.90
2022,05,18,14,24,20.50
2022,05,18,14,25,9.90
2022,05,18,14,26,17.30
2022,05,18,14,27,18.20
2022,05,18,14,28,15.80
2022,05,18,14,29,14.40
2022,05,18,14,30,12.70
2022,05,18,14,31,9.00
2022,05,18,14,32,12.00
2022,05,18,14,33,11.10
2022,05,18,14,34,13.20
2022,05,18,14,35,11.60
2022,05,18,14,36,8.50
2022,05,18,14,37,4.60
2022,05,18,14,38,2.00
2022,05,18,14,39,7.00
2022,05,18,14,40,10.70
2022,05,18,14,41,14.20
2022,05,18,14,42,11.10
2022,05,18,14,43,13.80
2022,05,18,14,44,11.30
2022,05,18,14,45,13.60
2022,05,18,14,46,9.10
2022,05,18,14,47,5.50
2022,05,18,14,48,4.40
2022,05,18,14,49,11.10
2022,05,18,14,50,13.60
2022,05,18,14,51,6.80
2022,05,18,14,52,7.70
2022,05,18,14,53,13.20
2022,05,18,14,54,14.30
2022,05,18,14,55,14.00
2022,05,18,14,56,9.70
2022,05,18,14,57,6.20
2022,05,18,14,58,11.40
2022,05,18,14,59,17.10
2022,05,18,15,00,11.10
2022,05,18,15,01,9.30
2022,05,18,15,02,10.60
2022,05,18,15,03,15.30
2022,05,18,15,04,14.60
2022,05,18,15,05,13.90
2022,05,18,15,06,13.30
2022,05,18,15,07,13.90
2022,05,18,15,08,9.30
2022,05,18,15,09,12.10
2022,05,18,15,10,5.90
2022,05,18,15,11,8.00
2022,05,18,15,12,9.90
2022,05,18,15,13,7.70
2022,05,18,15,14,5.20
2022,05,18,15,15,18.20
2022,05,18,15,16,14.50
2022,05,18,15,17,16.40
2022,05,18,15,18,10.00
2022,05,18,15,19,11.80
2022,05,18,15,20,12.50
2022,05,18,15,21,13.10
2022,05,18,15,22,11.10
2022,05,18,15,23,13.70
2022,05,18,15,24,11.10
2022,05,18,15,25,6.20
2022,05,18,15,26,11.30
2022,05,18,15,27,10.90
2022,05,18,15,28,13.30
2022,05,18,15,29,11.50
2022,05,18,15,30,17.40
2022,05,18,15,31,14.30
2022,05,18,15,32,12.20
2022,05,18,15,33,14.20
2022,05,18,15,34,15.30
2022,05,18,15,35,9.80
2022,05,18,15,36,7.30
2022,05,18,15,37,13.90
2022,05,18,15,38,11.10
2022,05,18,15,39,7.20
2022,05,18,15,40,9.60
2022,05,18,15,41,9.10
2022,05,18,15,42,14.30
2022,05,18,15,43,7.90
2022,05,18,15,44,11.30
2022,05,18,15,45,11.80
2022,05,18,15,46,9.70
2022,05,18,15,47,7.60
2022,05,18,15,48,17.10
2022,05,18,15,49,9.80
2022,05,18,15,50,9.60
2022,05,18,15,51,8.70
2022,05,18,15,52,6.30
2022,05,18,15,53,9.90
2022,05,18,15,54,9.30
2022,05,18,15,55,8.40
2022,05,18,15,56,11.30
2022,05,18,15,57,11.00
2022,05,18,15,58,13.60
2022,05,18,15,59,5.90
2022,05,18,16,00,9.50
2022,05,18,16,01,3.80
2022,05,18,16,02,3.70
2022,05,18,16,03,9.40
2022,05,18,16,04,7.50
2022,05,18,16,05,8.80
2022,05,18,16,06,13.10
2022,05,18,16,07,8.30
2022,05,18,16,08,14.60
2022,05,18,16,09,11.80
2022,05,18,16,10,9.90
2022,05,18,16,11,10.70
2022,05,18,16,12,8.50
2022,05,18,16,13,8.10
2022,05,18,16,14,12.10
2022,05,18,16,15,12.60
2022,05,18,16,16,16.50
2022,05,18,16,17,12.70
2022,05,18,16,18,13.70
2022,05,18,16,19,17.00
2022,05,18,16,20,18.00
2022,05,18,16,21,11.70
2022,05,18,16,22,13.60
2022,05,18,16,23,12.40
2022,05,18,16,24,9.30
2022,05,18,16,25,12.20
2022,05,18,16,26,10.50
2022,05,18,16,27,7.80
2022,05,18,16,28,10.40
2022,05,18,16,29,5.90
2022,05,18,16,30,9.90
2022,05,18,16,31,9.10
2022,05,18,16,32,6.20
2022,05,18,16,33,6.80
2022,05,18,16,34,14.60
2022,05,18,16,35,7.20
2022,05,18,16,36,8.40
2022,05,18,16,37,10.00
2022,05,18,16,38,11.10
2022,05,18,16,39,13.20
2022,05,18,16,40,9.90
2022,05,18,16,41,10.80
2022,05,18,16,42,12.90
2022,05,18,16,43,12.40
2022,05,18,16,44,11.50
2022,05,18,16,45,9.80
2022,05,18,16,46,15.10
2022,05,18,16,47,12.20
2022,05,18,16,48,10.00
2022,05,18,16,49,5.50
2022,05,18,16,50,9.90
2022,05,18,16,51,12.10
2022,05,18,16,52,16.50
2022,05,18,16,53,13.60
2022,05,18,16,54,11.30
2022,05,18,16,55,12.70
2022,05,18,16,56,10.90
2022,05,18,16,57,2.50
2022,05,18,16,58,4.40
2022,05,18,16,59,3.70
2022,05,18,17,00,6.70
2022,05,18,17,01,6.50
2022,05,18,17,02,9.40
2022,05,18,17,03,7.80
2022,05,18,17,04,12.10
2022,05,18,17,05,11.90
2022,05,18,17,06,10.90
2022,05,18,17,07,8.80
2022,05,18,17,08,14.20
2022,05,18,17,09,10.10
2022,05,18,17,10,15.40
2022,05,18,17,11,12.20
2022,05,18,17,12,17.90
2022,05,18,17,13,16.70
2022,05,18,17,14,16.30
2022,05,18,17,15,17.40
2022,05,18,17,16,19.80
2022,05,18,17,17,12.80
2022,05,18,17,18,14.00
2022,05,18,17,19,10.20
2022,05,18,17,20,16.80
2022,05,18,17,21,12.70
2022,05,18,17,22,10.10
2022,05,18,17,23,11.70
2022,05,18,17,24,20.90
2022,05,18,17,25,8.00
2022,05,18,17,26,7.50
2022,05,18,17,27,11.10
2022,05,18,17,28,7.00
2022,05,18,17,29,15.50
2022,05,18,17,30,13.70
2022,05,18,17,31,19.60
2022,05,18,17,32,14.60
2022,05,18,17,33,9.00
2022,05,18,17,34,11.10
2022,05,18,17,35,6.80
2022,05,18,17,36,13.00
2022,05,18,17,37,14.80
2022,05,18,17,38,14.40
2022,05,18,17,39,20.20